Lancaster, CA

3:26 PM PDT on March 22, 2017 (GMT -0700)
Gen Fox

Weather History for KWJF - June, 2013

Change the Weather History Date:

Tuesday, June 11, 2013

  Actual Average Record
Temperature  
Mean Temperature 80 °F 75 °F  
Max Temperature 98 °F 90 °F 104 °F (1985)
Min Temperature 61 °F 60 °F 43 °F (1954)
Degree Days  
Heating Degree Days 0    
Month to date heating degree days 0  
Since 1 June heating degree days 0  
Since 1 July heating degree days 2717  
Cooling Degree Days 15    
Month to date cooling degree days 165  
Year to date cooling degree days 423  
Since 1 June cooling degree days 165  
Growing Degree Days 30 (Base 50)    
Moisture  
Dew Point 36 °F    
Average Humidity 25    
Maximum Humidity 40    
Minimum Humidity 9    
Precipitation  
Precipitation 0.00 in 0.00 in 0.00 in (2017)
Month to date precipitation 0.00 0.02  
Year to date precipitation 1.10 4.88  
Since 1 July precipitation 1.26  
Snow  
Snow 0.00 in - 0.00 in ()
Month to date snowfall 0.0  
Since 1 June snowfall 0.0  
Since 1 July snowfall 0.0  
Snow Depth 0.00 in    
Sea Level Pressure  
Sea Level Pressure 29.87 in    
Wind  
Wind Speed 11 mph (WSW)    
Max Wind Speed 25 mph    
Max Gust Speed 33 mph    
Visibility 10 miles    
Events      
T = Trace of Precipitation, MM = Missing Value Source: NWS Daily Summary

Daily Weather History Graph

Daily Weather History Graph

Search for Another Location

Airport or City:

Trip Planner

Search our weather history database for the weather conditions in past years. The results will help you decide how hot, cold, wet, or windy it might be!

Date:

Astronomy

Jun. 11, 2013 Rise Set
Actual Time 5:39 AM PDT 8:06 PM PDT
Civil Twilight 5:09 AM PDT 8:35 PM PDT
Nautical Twilight 4:33 AM PDT 9:12 PM PDT
Astronomical Twilight 3:53 AM PDT 9:52 PM PDT
Moon 8:21 AM PDT (6/11) 10:18 PM PDT (6/11)
Length of Visible Light 15h 26m
Length of Day
14h 27m
Waxing Crescent, 9% of the Moon is Illuminated
Jun 11
Waxing Crescent
Jun 16
First Quarter
Jun 23
Full
Jun 29
Last Quarter
Jul 8
New

Hourly Weather History & Observations

Time (PDT) Temp. Dew Point Humidity Pressure Visibility Wind Dir Wind Speed Gust Speed Precip Events Conditions
12:56 AM 70.0 °F 35.1 °F 28% 29.88 in 10.0 mi WSW 8.1 mph - N/A   Clear
1:56 AM 70.0 °F 35.1 °F 28% 29.87 in 10.0 mi West 11.5 mph - N/A   Clear
2:56 AM 68.0 °F 36.0 °F 31% 29.87 in 10.0 mi WSW 8.1 mph - N/A   Clear
3:56 AM 66.0 °F 41.0 °F 40% 29.88 in 10.0 mi WSW 9.2 mph - N/A   Clear
4:56 AM 66.0 °F 41.0 °F 40% 29.88 in 10.0 mi Calm Calm - N/A   Clear
5:56 AM 63.0 °F 37.0 °F 38% 29.89 in 10.0 mi Calm Calm - N/A   Clear
6:56 AM 66.9 °F 36.0 °F 32% 29.90 in 10.0 mi SE 3.5 mph - N/A   Clear
7:56 AM 73.9 °F 37.9 °F 27% 29.91 in 10.0 mi Calm Calm - N/A   Clear
8:56 AM 82.9 °F 37.0 °F 19% 29.90 in 10.0 mi Calm Calm - N/A   Clear
9:56 AM 88.0 °F 33.1 °F 14% 29.89 in 10.0 mi Variable 3.5 mph - N/A   Unknown
10:56 AM 93.0 °F 32.0 °F 12% 29.89 in 10.0 mi Variable 3.5 mph - N/A   Clear
11:56 AM 95.0 °F 33.1 °F 11% 29.88 in 10.0 mi SW 11.5 mph - N/A   Clear
12:56 PM 96.1 °F 28.9 °F 9% 29.87 in 10.0 mi SW 18.4 mph 21.9 mph N/A   Clear
1:56 PM 97.0 °F 28.0 °F 9% 29.86 in 10.0 mi WSW 16.1 mph 23.0 mph N/A   Clear
2:56 PM 97.0 °F 30.9 °F 10% 29.84 in 10.0 mi SW 24.2 mph 32.2 mph N/A   Clear
3:56 PM 95.0 °F 36.0 °F 13% 29.84 in 10.0 mi SW 21.9 mph 32.2 mph N/A   Clear
4:56 PM 93.9 °F 43.0 °F 17% 29.84 in 10.0 mi SW 20.7 mph 27.6 mph N/A   Clear
5:56 PM 91.0 °F 37.9 °F 15% 29.84 in 10.0 mi WSW 20.7 mph 27.6 mph N/A   Clear
6:56 PM 88.0 °F 39.0 °F 18% 29.86 in 10.0 mi West 17.3 mph 25.3 mph N/A   Clear
7:56 PM 82.0 °F 41.0 °F 23% 29.86 in 10.0 mi WSW 18.4 mph - N/A   Clear
8:56 PM 79.0 °F 42.1 °F 27% 29.87 in 10.0 mi WSW 15.0 mph - N/A   Clear
9:56 PM 78.1 °F 39.9 °F 25% 29.88 in 10.0 mi WSW 11.5 mph - N/A   Clear
10:56 PM 78.1 °F 35.1 °F 21% 29.88 in 10.0 mi West 12.7 mph - N/A   Clear
11:56 PM 79.0 °F 30.0 °F 17% 29.87 in 10.0 mi WSW 12.7 mph - N/A   Clear